MST,Max TemperatureF,Mean TemperatureF,Min TemperatureF,Max Dew PointF,MeanDew PointF,Min DewpointF,Max Humidity, Mean Humidity, Min Humidity, Max Sea Level PressureIn, Mean Sea Level PressureIn, Min Sea Level PressureIn, Max VisibilityMiles, Mean VisibilityMiles, Min VisibilityMiles, Max Wind SpeedMPH, Mean Wind SpeedMPH, Max Gust SpeedMPH,PrecipitationIn, CloudCover, Events, WindDirDegrees
2012-10-1,100,86,73,36,30,24,23,13,7,29.89,29.81,29.76,10,10,10,14,4,,0.00,0,,67
2012-10-2,100,85,70,41,36,28,35,18,8,29.85,29.79,29.74,10,10,10,8,2,,0.00,0,,227
2012-10-3,98,85,72,43,39,33,33,21,10,29.90,29.84,29.78,10,10,10,8,2,,0.00,0,,144
2012-10-4,93,83,73,44,41,38,33,24,15,30.00,29.93,29.88,10,10,10,8,2,16,0.00,0,,191
2012-10-5,91,80,70,44,38,31,38,23,12,29.98,29.89,29.83,10,10,10,7,2,,0.00,0,,155
2012-10-6,89,78,68,46,40,36,40,26,16,29.88,29.82,29.77,10,10,10,8,1,,0.00,0,,205
2012-10-7,91,80,69,46,42,40,42,27,17,29.86,29.81,29.76,10,10,10,7,1,,0.00,0,,188
2012-10-8,91,78,66,45,43,42,44,29,19,29.91,29.84,29.79,10,10,10,8,1,,0.00,0,,182
2012-10-9,90,80,69,50,48,45,45,33,23,29.93,29.85,29.79,10,10,10,7,1,,0.00,0,,180
2012-10-10,90,80,70,51,45,37,47,31,15,29.93,29.84,29.75,10,10,10,8,3,,0.00,0,,175
2012-10-11,84,77,66,58,50,39,65,42,22,29.90,29.82,29.72,10,10,8,15,3,20,0.06,4,Rain-Thunderstorm,164
2012-10-12,73,68,63,58,44,35,78,45,25,30.05,29.98,29.85,10,10,10,9,3,,0.02,2,,226
2012-10-13,80,68,55,46,43,38,67,45,23,30.13,30.05,29.97,10,10,10,5,1,,0.00,0,,328
2012-10-14,91,75,59,46,41,34,60,33,13,30.05,29.96,29.88,10,10,10,6,1,,0.00,0,,6
2012-10-15,93,80,66,43,35,28,37,22,10,29.93,29.85,29.79,10,10,10,7,2,,0.00,0,,21
2012-10-16,90,76,63,43,37,32,41,26,13,29.85,29.77,29.70,10,10,10,8,1,,0.00,0,,193
2012-10-17,90,76,63,45,40,34,48,28,14,29.87,29.81,29.75,10,10,10,9,1,,0.00,0,,193
2012-10-18,87,76,64,60,46,34,56,36,15,30.01,29.93,29.88,10,10,9,8,2,,0.00,0,,240
2012-10-19,91,76,62,47,40,31,56,30,13,29.92,29.83,29.76,10,10,10,8,2,,0.00,0,,224
2012-10-20,88,76,64,42,37,31,45,26,13,29.82,29.75,29.70,10,10,10,8,1,,0.00,1,,197
2012-10-21,86,77,68,53,46,39,49,34,21,29.82,29.77,29.72,10,10,10,10,4,18,0.00,1,,188
2012-10-22,82,73,64,55,52,49,63,48,34,29.90,29.84,29.80,10,10,10,9,2,,0.00,0,,150
2012-10-23,81,72,62,51,49,46,67,45,29,29.88,29.82,29.77,10,10,10,5,1,,0.00,0,,245
2012-10-24,80,70,60,50,37,22,60,32,12,29.91,29.84,29.80,10,10,10,12,2,,0.00,0,,267
2012-10-25,82,68,54,36,26,15,49,25,8,30.01,29.93,29.87,10,10,10,8,1,,0.00,0,,238
2012-10-26,82,74,66,21,15,9,16,11,7,30.04,29.94,29.86,10,10,10,15,7,25,0.00,0,,14
2012-10-27,84,70,55,31,24,19,29,20,11,29.96,29.89,29.83,10,10,10,5,1,,0.00,0,,201
2012-10-28,87,71,55,36,29,23,45,24,10,29.98,29.92,29.88,10,10,10,6,1,,0.00,0,,311
2012-10-29,88,72,55,37,32,26,49,26,11,30.07,30.00,29.96,10,10,9,6,1,,0.00,0,,332
2012-10-30,86,72,57,37,32,25,47,27,11,30.04,29.96,29.91,10,10,9,7,1,,0.00,0,,201
2012-10-31,86,70,55,37,30,22,51,26,10,29.99,29.93,29.87,10,10,8,6,1,,0.00,0,,246